When you browse on this site, cookies collect data to enhance your experience and personalize the content and advertising you see.
Visit our Privacy Policy to learn more. By continuing to use the site, you agree to this use of cookies and data.
  • Em Portugal
  • Lista de países
  • Para 7 dias
  • Temperatura da água
  • Mapas de satélite
  • Mapa do tempo
  • Widgets de tempo
  • user-avatar
    Iniciar Sessão

    Previsão horária em Krasnoe Lyado

    Hoje, 18 Fevereiro, Segunda-feira

    Tempo Temperatura Precipitação Vento Pressão Humidade
    00:00 -5°C° 0 mm 4 m/s 739 mmHg 79%
    01:00 -7°C° 0 mm 4 m/s 740 mmHg 81%
    02:00 -6°C° 0 mm 3 m/s 741 mmHg 83%
    03:00 -7°C° 0 mm 3 m/s 741 mmHg 84%
    04:00 -7°C° 0 mm 3 m/s 742 mmHg 86%
    05:00 -7°C° 0 mm 3 m/s 742 mmHg 87%
    06:00 -6°C° 0 mm 2 m/s 743 mmHg 88%
    07:00 -6°C° 0 mm 2 m/s 743 mmHg 88%
    08:00 -7°C° 0 mm 2 m/s 744 mmHg 89%
    09:00 -6°C° 0 mm 2 m/s 744 mmHg 84%
    10:00 -5°C° 0 mm 2 m/s 745 mmHg 80%
    11:00 -5°C° 0 mm 2 m/s 745 mmHg 76%
    12:00 -2°C° 0 mm 1 m/s 745 mmHg 73%
    13:00 -2°C° 0 mm 1 m/s 745 mmHg 69%
    14:00 -1°C° 0 mm 1 m/s 745 mmHg 65%
    15:00 -2°C° 0 mm 1 m/s 745 mmHg 70%
    16:00 -3°C° 0 mm 1 m/s 745 mmHg 74%
    17:00 -3°C° 0 mm 1 m/s 745 mmHg 78%
    18:00 -3°C° 0 mm 1 m/s 745 mmHg 79%
    19:00 -4°C° 0 mm 1 m/s 744 mmHg 81%
    20:00 -6°C° 0 mm 2 m/s 744 mmHg 82%
    21:00 -6°C° 0 mm 2 m/s 744 mmHg 80%
    22:00 -7°C° 0 mm 3 m/s 744 mmHg 79%
    23:00 -6°C° 0 mm 3 m/s 743 mmHg 77%

    Amanhã, 19 Fevereiro, Terça-feira

    Tempo Temperatura Precipitação Vento Pressão Humidade
    00:00 -7°C° 0 mm 4 m/s 743 mmHg 76%
    01:00 -7°C° 0 mm 4 m/s 742 mmHg 74%
    02:00 -7°C° 0 mm 4 m/s 742 mmHg 72%
    03:00 -7°C° 0 mm 5 m/s 741 mmHg 73%
    04:00 -6°C° 0 mm 5 m/s 741 mmHg 73%
    05:00 -6°C° 0 mm 5 m/s 740 mmHg 73%
    06:00 -6°C° 0 mm 5 m/s 739 mmHg 76%
    07:00 -6°C° 0 mm 5 m/s 739 mmHg 78%
    08:00 -5°C° 0 mm 5 m/s 739 mmHg 80%
    09:00 -4°C° 0 mm 5 m/s 738 mmHg 79%
    10:00 -2°C° 0 mm 5 m/s 738 mmHg 77%
    11:00 -1°C° 0 mm 5 m/s 737 mmHg 76%
    12:00 -1°C° 0 mm 5 m/s 737 mmHg 76%
    13:00 0°C° 0 mm 5 m/s 736 mmHg 77%
    14:00 0°C° 0 mm 5 m/s 736 mmHg 77%
    15:00 -1°C° 0 mm 5 m/s 735 mmHg 79%
    16:00 -1°C° 0 mm 5 m/s 735 mmHg 82%
    17:00 -2°C° 0 mm 5 m/s 734 mmHg 84%
    18:00 -2°C° 0 mm 5 m/s 733 mmHg 85%
    19:00 -2°C° 0 mm 5 m/s 733 mmHg 86%
    20:00 -1°C° 0 mm 5 m/s 732 mmHg 87%
    21:00 -1°C° 0 mm 5 m/s 732 mmHg 88%
    22:00 -1°C° 0 mm 5 m/s 731 mmHg 89%
    23:00 -1°C° 0 mm 5 m/s 730 mmHg 90%

    Depois de amanhã, 20 Fevereiro, Quarta-feira

    Tempo Temperatura Precipitação Vento Pressão Humidade
    00:00 -1°C° 0.1 mm 5 m/s 729 mmHg 90%
    01:00 -1°C° 0.1 mm 5 m/s 729 mmHg 90%
    02:00 0°C° 0.1 mm 5 m/s 728 mmHg 90%
    03:00 0°C° 0.4 mm 5 m/s 728 mmHg 90%
    04:00 0°C° 0.4 mm 5 m/s 728 mmHg 91%
    05:00 0°C° 0.4 mm 5 m/s 727 mmHg 91%
    06:00 0°C° 0.1 mm 5 m/s 727 mmHg 91%
    07:00 0°C° 0.1 mm 5 m/s 728 mmHg 91%
    08:00 0°C° 0.1 mm 5 m/s 728 mmHg 91%
    09:00 0°C° 0.1 mm 5 m/s 728 mmHg 88%
    10:00 0°C° 0.1 mm 5 m/s 727 mmHg 85%
    11:00 0°C° 0.1 mm 5 m/s 727 mmHg 82%
    12:00 0°C° 0.1 mm 5 m/s 727 mmHg 82%
    13:00 0°C° 0.1 mm 5 m/s 727 mmHg 82%
    14:00 0°C° 0.1 mm 5 m/s 727 mmHg 83%
    15:00 0°C° 0.5 mm 5 m/s 726 mmHg 84%
    16:00 0°C° 0.5 mm 5 m/s 726 mmHg 85%
    17:00 0°C° 0.5 mm 5 m/s 726 mmHg 86%
    18:00 -1°C° 0.2 mm 5 m/s 726 mmHg 81%
    19:00 -2°C° 0.2 mm 5 m/s 726 mmHg 77%
    20:00 -4°C° 0.2 mm 5 m/s 726 mmHg 73%
    21:00 -5°C° 0.1 mm 5 m/s 726 mmHg 76%
    22:00 -5°C° 0.1 mm 5 m/s 726 mmHg 80%
    23:00 -6°C° 0.1 mm 6 m/s 727 mmHg 83%

    21 Fevereiro, Quinta-feira

    Tempo Temperatura Precipitação Vento Pressão Humidade
    00:00 -6°C° 0.4 mm 6 m/s 727 mmHg 84%
    01:00 -6°C° 0.4 mm 6 m/s 727 mmHg 84%
    02:00 -6°C° 0.4 mm 6 m/s 727 mmHg 85%
    03:00 -6°C° 0.3 mm 6 m/s 728 mmHg 83%
    04:00 -6°C° 0.3 mm 6 m/s 728 mmHg 82%
    05:00 -6°C° 0.3 mm 6 m/s 728 mmHg 80%
    06:00 -8°C° 0.2 mm 6 m/s 729 mmHg 78%
    07:00 -8°C° 0.2 mm 7 m/s 729 mmHg 76%
    08:00 -8°C° 0.2 mm 7 m/s 730 mmHg 74%
    09:00 -9°C° 0.1 mm 7 m/s 731 mmHg 74%
    10:00 -9°C° 0.1 mm 7 m/s 732 mmHg 74%
    11:00 -9°C° 0.1 mm 7 m/s 733 mmHg 75%
    12:00 -9°C° 0.1 mm 7 m/s 733 mmHg 73%
    13:00 -9°C° 0.1 mm 7 m/s 734 mmHg 72%
    14:00 -9°C° 0.1 mm 7 m/s 735 mmHg 70%
    15:00 -9°C° 0.1 mm 7 m/s 736 mmHg 71%
    16:00 -11°C° 0.1 mm 7 m/s 737 mmHg 71%
    17:00 -10°C° 0.1 mm 6 m/s 738 mmHg 72%
    18:00 -11°C° 0 mm 6 m/s 739 mmHg 72%
    19:00 -11°C° 0 mm 6 m/s 740 mmHg 72%
    20:00 -12°C° 0 mm 6 m/s 741 mmHg 72%
    21:00 -12°C° 0 mm 6 m/s 742 mmHg 72%
    22:00 -12°C° 0 mm 5 m/s 742 mmHg 72%
    23:00 -13°C° 0 mm 5 m/s 743 mmHg 72%

    22 Fevereiro, Sexta-feira

    Tempo Temperatura Precipitação Vento Pressão Humidade
    00:00 -13°C° 0 mm 5 m/s 744 mmHg 73%
    01:00 -13°C° 0 mm 5 m/s 745 mmHg 74%
    02:00 -14°C° 0 mm 5 m/s 745 mmHg 74%
    03:00 -14°C° 0 mm 5 m/s 746 mmHg 75%
    04:00 -14°C° 0 mm 4 m/s 747 mmHg 75%
    05:00 -14°C° 0 mm 4 m/s 747 mmHg 76%
    06:00 -14°C° 0 mm 4 m/s 748 mmHg 76%
    07:00 -14°C° 0 mm 4 m/s 749 mmHg 77%
    08:00 -14°C° 0 mm 4 m/s 749 mmHg 77%
    09:00 -13°C° 0 mm 5 m/s 750 mmHg 73%
    10:00 -12°C° 0 mm 5 m/s 750 mmHg 70%
    11:00 -12°C° 0 mm 5 m/s 751 mmHg 66%
    12:00 -11°C° 0 mm 5 m/s 751 mmHg 65%
    13:00 -11°C° 0 mm 5 m/s 752 mmHg 63%
    14:00 -10°C° 0 mm 5 m/s 752 mmHg 62%
    15:00 -11°C° 0 mm 5 m/s 752 mmHg 66%
    16:00 -10°C° 0 mm 4 m/s 753 mmHg 70%
    17:00 -11°C° 0 mm 4 m/s 753 mmHg 74%
    18:00 -11°C° 0 mm 4 m/s 754 mmHg 77%
    19:00 -11°C° 0 mm 4 m/s 754 mmHg 80%
    20:00 -12°C° 0 mm 3 m/s 755 mmHg 83%
    21:00 -12°C° 0 mm 3 m/s 755 mmHg 86%
    22:00 -10°C° 0 mm 2 m/s 755 mmHg 88%
    23:00 -12°C° 0 mm 2 m/s 755 mmHg 91%

    23 Fevereiro, Sábado

    Tempo Temperatura Precipitação Vento Pressão Humidade
    00:00 -10°C° 0 mm 1 m/s 755 mmHg 91%
    01:00 -10°C° 0 mm 1 m/s 755 mmHg 90%
    02:00 -10°C° 0 mm 1 m/s 755 mmHg 89%
    03:00 -10°C° 0 mm 1 m/s 755 mmHg 85%
    04:00 -10°C° 0 mm 2 m/s 754 mmHg 80%
    05:00 -9°C° 0 mm 2 m/s 754 mmHg 76%
    06:00 -10°C° 0 mm 3 m/s 753 mmHg 71%
    07:00 -9°C° 0 mm 3 m/s 753 mmHg 66%
    08:00 -10°C° 0 mm 4 m/s 753 mmHg 61%
    09:00 -10°C° 0.1 mm 4 m/s 752 mmHg 68%
    10:00 -10°C° 0.1 mm 5 m/s 751 mmHg 74%
    11:00 -10°C° 0.1 mm 5 m/s 751 mmHg 81%
    12:00 -10°C° 0.6 mm 5 m/s 750 mmHg 84%
    13:00 -10°C° 0.6 mm 5 m/s 749 mmHg 87%
    14:00 -8°C° 0.6 mm 4 m/s 749 mmHg 90%
    15:00 -8°C° 0.3 mm 4 m/s 749 mmHg 90%
    16:00 -8°C° 0.3 mm 4 m/s 748 mmHg 90%
    17:00 -8°C° 0.3 mm 4 m/s 748 mmHg 90%
    18:00 -6°C° 0.1 mm 3 m/s 748 mmHg 91%
    19:00 -6°C° 0.1 mm 3 m/s 748 mmHg 92%
    20:00 -6°C° 0.1 mm 3 m/s 748 mmHg 93%
    21:00 -6°C° 0 mm 3 m/s 747 mmHg 93%
    22:00 -6°C° 0 mm 3 m/s 747 mmHg 93%
    23:00 -5°C° 0 mm 3 m/s 747 mmHg 93%
    Mostrar mais